Year,Month,Day,Hour,Minute,Value (Times are PST for temperature in C)
2011,07,19,00,00,11.60
2011,07,19,00,01,11.60
2011,07,19,00,02,11.50
2011,07,19,00,03,11.50
2011,07,19,00,04,11.50
2011,07,19,00,05,11.50
2011,07,19,00,06,11.50
2011,07,19,00,07,11.50
2011,07,19,00,08,11.40
2011,07,19,00,09,11.40
2011,07,19,00,10,11.40
2011,07,19,00,11,11.40
2011,07,19,00,12,11.40
2011,07,19,00,13,11.40
2011,07,19,00,14,11.40
2011,07,19,00,15,11.40
2011,07,19,00,16,11.40
2011,07,19,00,17,11.40
2011,07,19,00,18,11.30
2011,07,19,00,19,11.30
2011,07,19,00,20,11.30
2011,07,19,00,21,11.30
2011,07,19,00,22,11.30
2011,07,19,00,23,11.30
2011,07,19,00,24,11.30
2011,07,19,00,25,11.30
2011,07,19,00,26,11.30
2011,07,19,00,27,11.30
2011,07,19,00,28,11.30
2011,07,19,00,29,11.30
2011,07,19,00,30,11.30
2011,07,19,00,31,11.30
2011,07,19,00,32,11.30
2011,07,19,00,33,11.30
2011,07,19,00,34,11.30
2011,07,19,00,35,11.30
2011,07,19,00,36,11.40
2011,07,19,00,37,11.40
2011,07,19,00,38,11.40
2011,07,19,00,39,11.40
2011,07,19,00,40,11.40
2011,07,19,00,41,11.40
2011,07,19,00,42,11.40
2011,07,19,00,43,11.40
2011,07,19,00,44,11.40
2011,07,19,00,45,11.30
2011,07,19,00,46,11.30
2011,07,19,00,47,11.30
2011,07,19,00,48,11.30
2011,07,19,00,49,11.30
2011,07,19,00,50,11.30
2011,07,19,00,51,11.30
2011,07,19,00,52,11.20
2011,07,19,00,53,11.20
2011,07,19,00,54,11.20
2011,07,19,00,55,11.20
2011,07,19,00,56,11.20
2011,07,19,00,57,11.20
2011,07,19,00,58,11.20
2011,07,19,00,59,11.20
2011,07,19,01,00,11.20
2011,07,19,01,01,11.10
2011,07,19,01,02,11.10
2011,07,19,01,03,11.10
2011,07,19,01,04,11.10
2011,07,19,01,05,11.10
2011,07,19,01,06,11.10
2011,07,19,01,07,11.10
2011,07,19,01,08,11.10
2011,07,19,01,09,11.10
2011,07,19,01,10,11.00
2011,07,19,01,11,11.00
2011,07,19,01,12,11.00
2011,07,19,01,13,11.00
2011,07,19,01,14,11.00
2011,07,19,01,15,11.00
2011,07,19,01,16,11.00
2011,07,19,01,17,11.00
2011,07,19,01,18,11.00
2011,07,19,01,19,11.00
2011,07,19,01,20,11.00
2011,07,19,01,21,11.00
2011,07,19,01,22,11.00
2011,07,19,01,23,11.00
2011,07,19,01,24,11.00
2011,07,19,01,25,11.00
2011,07,19,01,26,11.00
2011,07,19,01,27,11.00
2011,07,19,01,28,11.00
2011,07,19,01,29,11.00
2011,07,19,01,30,11.00
2011,07,19,01,31,11.00
2011,07,19,01,32,11.00
2011,07,19,01,33,11.00
2011,07,19,01,34,11.00
2011,07,19,01,35,11.00
2011,07,19,01,36,11.00
2011,07,19,01,37,11.00
2011,07,19,01,38,11.00
2011,07,19,01,39,11.00
2011,07,19,01,40,11.00
2011,07,19,01,41,11.00
2011,07,19,01,42,11.00
2011,07,19,01,43,11.00
2011,07,19,01,44,10.90
2011,07,19,01,45,10.90
2011,07,19,01,46,10.90
2011,07,19,01,47,10.90
2011,07,19,01,48,10.90
2011,07,19,01,49,10.90
2011,07,19,01,50,10.90
2011,07,19,01,51,10.90
2011,07,19,01,52,10.90
2011,07,19,01,53,10.90
2011,07,19,01,54,10.90
2011,07,19,01,55,10.90
2011,07,19,01,56,10.90
2011,07,19,01,57,10.90
2011,07,19,01,58,10.80
2011,07,19,01,59,10.80
2011,07,19,02,00,10.80
2011,07,19,02,01,10.80
2011,07,19,02,02,10.80
2011,07,19,02,03,10.80
2011,07,19,02,04,10.80
2011,07,19,02,05,10.80
2011,07,19,02,06,10.80
2011,07,19,02,07,10.80
2011,07,19,02,08,10.80
2011,07,19,02,09,10.80
2011,07,19,02,10,10.80
2011,07,19,02,11,10.80
2011,07,19,02,12,10.80
2011,07,19,02,13,10.80
2011,07,19,02,14,10.80
2011,07,19,02,15,10.80
2011,07,19,02,16,10.70
2011,07,19,02,17,10.70
2011,07,19,02,18,10.70
2011,07,19,02,19,10.70
2011,07,19,02,20,10.70
2011,07,19,02,21,10.70
2011,07,19,02,22,10.70
2011,07,19,02,23,10.70
2011,07,19,02,24,10.70
2011,07,19,02,25,10.70
2011,07,19,02,26,10.70
2011,07,19,02,27,10.60
2011,07,19,02,28,10.60
2011,07,19,02,29,10.60
2011,07,19,02,30,10.60
2011,07,19,02,31,10.60
2011,07,19,02,32,10.60
2011,07,19,02,33,10.50
2011,07,19,02,34,10.50
2011,07,19,02,35,10.50
2011,07,19,02,36,10.50
2011,07,19,02,37,10.50
2011,07,19,02,38,10.50
2011,07,19,02,39,10.50
2011,07,19,02,40,10.50
2011,07,19,02,41,10.40
2011,07,19,02,42,10.40
2011,07,19,02,43,10.40
2011,07,19,02,44,10.40
2011,07,19,02,45,10.40
2011,07,19,02,46,10.40
2011,07,19,02,47,10.40
2011,07,19,02,48,10.40
2011,07,19,02,49,10.40
2011,07,19,02,50,10.40
2011,07,19,02,51,10.40
2011,07,19,02,52,10.40
2011,07,19,02,53,10.40
2011,07,19,02,54,10.40
2011,07,19,02,55,10.40
2011,07,19,02,56,10.40
2011,07,19,02,57,10.40
2011,07,19,02,58,10.40
2011,07,19,02,59,10.40
2011,07,19,03,00,10.50
2011,07,19,03,01,10.50
2011,07,19,03,02,10.50
2011,07,19,03,03,10.50
2011,07,19,03,04,10.60
2011,07,19,03,05,10.60
2011,07,19,03,06,10.60
2011,07,19,03,07,10.60
2011,07,19,03,08,10.50
2011,07,19,03,09,10.50
2011,07,19,03,10,10.50
2011,07,19,03,11,10.50
2011,07,19,03,12,10.50
2011,07,19,03,13,10.40
2011,07,19,03,14,10.40
2011,07,19,03,15,10.40
2011,07,19,03,16,10.40
2011,07,19,03,17,10.40
2011,07,19,03,18,10.40
2011,07,19,03,19,10.40
2011,07,19,03,20,10.30
2011,07,19,03,21,10.30
2011,07,19,03,22,10.30
2011,07,19,03,23,10.30
2011,07,19,03,24,10.30
2011,07,19,03,25,10.30
2011,07,19,03,26,10.30
2011,07,19,03,27,10.30
2011,07,19,03,28,10.30
2011,07,19,03,29,10.30
2011,07,19,03,30,10.30
2011,07,19,03,31,10.30
2011,07,19,03,32,10.20
2011,07,19,03,33,10.20
2011,07,19,03,34,10.20
2011,07,19,03,35,10.20
2011,07,19,03,36,10.20
2011,07,19,03,37,10.20
2011,07,19,03,38,10.20
2011,07,19,03,39,10.20
2011,07,19,03,40,10.20
2011,07,19,03,41,10.20
2011,07,19,03,42,10.20
2011,07,19,03,43,10.20
2011,07,19,03,44,10.20
2011,07,19,03,45,10.20
2011,07,19,03,46,10.20
2011,07,19,03,47,10.20
2011,07,19,03,48,10.20
2011,07,19,03,49,10.20
2011,07,19,03,50,10.20
2011,07,19,03,51,10.20
2011,07,19,03,52,10.20
2011,07,19,03,53,10.20
2011,07,19,03,54,10.20
2011,07,19,03,55,10.20
2011,07,19,03,56,10.10
2011,07,19,03,57,10.10
2011,07,19,03,58,10.10
2011,07,19,03,59,10.10
2011,07,19,04,00,10.10
2011,07,19,04,01,10.20
2011,07,19,04,02,10.20
2011,07,19,04,03,10.20
2011,07,19,04,04,10.20
2011,07,19,04,05,10.20
2011,07,19,04,06,10.20
2011,07,19,04,07,10.20
2011,07,19,04,08,10.20
2011,07,19,04,09,10.20
2011,07,19,04,10,10.10
2011,07,19,04,11,10.10
2011,07,19,04,12,10.10
2011,07,19,04,13,10.10
2011,07,19,04,14,10.10
2011,07,19,04,15,10.10
2011,07,19,04,16,10.10
2011,07,19,04,17,10.10
2011,07,19,04,18,10.00
2011,07,19,04,19,10.00
2011,07,19,04,20,10.00
2011,07,19,04,21,10.00
2011,07,19,04,22,10.00
2011,07,19,04,23,10.00
2011,07,19,04,24,10.00
2011,07,19,04,25,10.00
2011,07,19,04,26,10.00
2011,07,19,04,27,10.00
2011,07,19,04,28,10.00
2011,07,19,04,29,9.90
2011,07,19,04,30,9.90
2011,07,19,04,31,9.90
2011,07,19,04,32,9.90
2011,07,19,04,33,9.90
2011,07,19,04,34,9.90
2011,07,19,04,35,9.90
2011,07,19,04,36,9.90
2011,07,19,04,37,9.90
2011,07,19,04,38,9.90
2011,07,19,04,39,9.90
2011,07,19,04,40,9.90
2011,07,19,04,41,9.90
2011,07,19,04,42,9.90
2011,07,19,04,43,9.90
2011,07,19,04,44,9.90
2011,07,19,04,45,9.90
2011,07,19,04,46,9.90
2011,07,19,04,47,9.90
2011,07,19,04,48,9.90
2011,07,19,04,49,9.90
2011,07,19,04,50,9.90
2011,07,19,04,51,9.80
2011,07,19,04,52,9.80
2011,07,19,04,53,9.80
2011,07,19,04,54,9.80
2011,07,19,04,55,9.80
2011,07,19,04,56,9.80
2011,07,19,04,57,9.80
2011,07,19,04,58,9.80
2011,07,19,04,59,9.80
2011,07,19,05,00,9.80
2011,07,19,05,01,9.80
2011,07,19,05,02,9.80
2011,07,19,05,03,9.80
2011,07,19,05,04,9.80
2011,07,19,05,05,9.80
2011,07,19,05,06,9.80
2011,07,19,05,07,9.80
2011,07,19,05,08,9.80
2011,07,19,05,09,9.90
2011,07,19,05,10,9.90
2011,07,19,05,11,9.90
2011,07,19,05,12,9.90
2011,07,19,05,13,9.90
2011,07,19,05,14,9.90
2011,07,19,05,15,9.90
2011,07,19,05,16,9.90
2011,07,19,05,17,9.90
2011,07,19,05,18,9.90
2011,07,19,05,19,9.90
2011,07,19,05,20,9.80
2011,07,19,05,21,9.80
2011,07,19,05,22,9.80
2011,07,19,05,23,9.80
2011,07,19,05,24,9.80
2011,07,19,05,25,9.80
2011,07,19,05,26,9.80
2011,07,19,05,27,9.80
2011,07,19,05,28,9.80
2011,07,19,05,29,9.80
2011,07,19,05,30,9.80
2011,07,19,05,31,9.80
2011,07,19,05,32,9.70
2011,07,19,05,33,9.70
2011,07,19,05,34,9.70
2011,07,19,05,35,9.70
2011,07,19,05,36,9.70
2011,07,19,05,37,9.70
2011,07,19,05,38,9.70
2011,07,19,05,39,9.70
2011,07,19,05,40,9.70
2011,07,19,05,41,9.70
2011,07,19,05,42,9.70
2011,07,19,05,43,9.70
2011,07,19,05,44,9.70
2011,07,19,05,45,9.70
2011,07,19,05,46,9.70
2011,07,19,05,47,9.80
2011,07,19,05,48,9.80
2011,07,19,05,49,9.80
2011,07,19,05,50,9.70
2011,07,19,05,51,9.70
2011,07,19,05,52,9.70
2011,07,19,05,53,9.70
2011,07,19,05,54,9.70
2011,07,19,05,55,9.70
2011,07,19,05,56,9.70
2011,07,19,05,57,9.70
2011,07,19,05,58,9.70
2011,07,19,05,59,9.70
2011,07,19,06,00,9.70
2011,07,19,06,01,9.70
2011,07,19,06,02,9.70
2011,07,19,06,03,9.70
2011,07,19,06,04,9.70
2011,07,19,06,05,9.70
2011,07,19,06,06,9.70
2011,07,19,06,07,9.70
2011,07,19,06,08,9.70
2011,07,19,06,09,9.70
2011,07,19,06,10,9.70
2011,07,19,06,11,9.70
2011,07,19,06,12,9.70
2011,07,19,06,13,9.70
2011,07,19,06,14,9.80
2011,07,19,06,15,9.80
2011,07,19,06,16,9.80
2011,07,19,06,17,9.80
2011,07,19,06,18,9.80
2011,07,19,06,19,9.80
2011,07,19,06,20,9.80
2011,07,19,06,21,9.80
2011,07,19,06,22,9.80
2011,07,19,06,23,9.80
2011,07,19,06,24,9.80
2011,07,19,06,25,9.80
2011,07,19,06,26,9.80
2011,07,19,06,27,9.80
2011,07,19,06,28,9.80
2011,07,19,06,29,9.90
2011,07,19,06,30,9.90
2011,07,19,06,31,9.90
2011,07,19,06,32,9.90
2011,07,19,06,33,9.90
2011,07,19,06,34,9.90
2011,07,19,06,35,9.90
2011,07,19,06,36,9.90
2011,07,19,06,37,9.90
2011,07,19,06,38,9.90
2011,07,19,06,39,9.90
2011,07,19,06,40,9.90
2011,07,19,06,41,9.90
2011,07,19,06,42,9.90
2011,07,19,06,43,9.90
2011,07,19,06,44,9.90
2011,07,19,06,45,10.00
2011,07,19,06,46,10.00
2011,07,19,06,47,10.00
2011,07,19,06,48,10.00
2011,07,19,06,49,10.00
2011,07,19,06,50,10.00
2011,07,19,06,51,10.10
2011,07,19,06,52,10.10
2011,07,19,06,53,10.10
2011,07,19,06,54,10.10
2011,07,19,06,55,10.10
2011,07,19,06,56,10.10
2011,07,19,06,57,10.20
2011,07,19,06,58,10.20
2011,07,19,06,59,10.20
2011,07,19,07,00,10.30
2011,07,19,07,01,10.30
2011,07,19,07,02,10.30
2011,07,19,07,03,10.40
2011,07,19,07,04,10.40
2011,07,19,07,05,10.40
2011,07,19,07,06,10.50
2011,07,19,07,07,10.50
2011,07,19,07,08,10.60
2011,07,19,07,09,10.60
2011,07,19,07,10,10.70
2011,07,19,07,11,10.70
2011,07,19,07,12,10.80
2011,07,19,07,13,10.80
2011,07,19,07,14,10.90
2011,07,19,07,15,10.90
2011,07,19,07,16,11.00
2011,07,19,07,17,11.10
2011,07,19,07,18,11.10
2011,07,19,07,19,11.20
2011,07,19,07,20,11.20
2011,07,19,07,21,11.30
2011,07,19,07,22,11.30
2011,07,19,07,23,11.40
2011,07,19,07,24,11.40
2011,07,19,07,25,11.40
2011,07,19,07,26,11.50
2011,07,19,07,27,11.60
2011,07,19,07,28,11.60
2011,07,19,07,29,11.70
2011,07,19,07,30,11.70
2011,07,19,07,31,11.80
2011,07,19,07,32,11.90
2011,07,19,07,33,12.00
2011,07,19,07,34,12.10
2011,07,19,07,35,12.20
2011,07,19,07,36,12.30
2011,07,19,07,37,12.40
2011,07,19,07,38,12.40
2011,07,19,07,39,12.50
2011,07,19,07,40,12.50
2011,07,19,07,41,12.60
2011,07,19,07,42,12.60
2011,07,19,07,43,12.60
2011,07,19,07,44,12.60
2011,07,19,07,45,12.60
2011,07,19,07,46,12.60
2011,07,19,07,47,12.70
2011,07,19,07,48,12.70
2011,07,19,07,49,12.80
2011,07,19,07,50,12.80
2011,07,19,07,51,12.80
2011,07,19,07,52,12.90
2011,07,19,07,53,12.90
2011,07,19,07,54,12.90
2011,07,19,07,55,13.00
2011,07,19,07,56,13.10
2011,07,19,07,57,13.10
2011,07,19,07,58,13.10
2011,07,19,07,59,13.20
2011,07,19,08,00,13.20
2011,07,19,08,01,13.20
2011,07,19,08,02,13.20
2011,07,19,08,03,13.30
2011,07,19,08,04,13.30
2011,07,19,08,05,13.30
2011,07,19,08,06,13.40
2011,07,19,08,07,13.40
2011,07,19,08,08,13.50
2011,07,19,08,09,13.60
2011,07,19,08,10,13.60
2011,07,19,08,11,13.70
2011,07,19,08,12,13.80
2011,07,19,08,13,13.80
2011,07,19,08,14,13.90
2011,07,19,08,15,13.90
2011,07,19,08,16,14.00
2011,07,19,08,17,14.00
2011,07,19,08,18,14.10
2011,07,19,08,19,14.10
2011,07,19,08,20,14.10
2011,07,19,08,21,14.10
2011,07,19,08,22,14.20
2011,07,19,08,23,14.20
2011,07,19,08,24,14.20
2011,07,19,08,25,14.30
2011,07,19,08,26,14.30
2011,07,19,08,27,14.30
2011,07,19,08,28,14.30
2011,07,19,08,29,14.40
2011,07,19,08,30,14.40
2011,07,19,08,31,14.40
2011,07,19,08,32,14.50
2011,07,19,08,33,14.50
2011,07,19,08,34,14.60
2011,07,19,08,35,14.70
2011,07,19,08,36,14.70
2011,07,19,08,37,14.80
2011,07,19,08,38,15.00
2011,07,19,08,39,15.00
2011,07,19,08,40,15.00
2011,07,19,08,41,15.00
2011,07,19,08,42,15.20
2011,07,19,08,43,15.30
2011,07,19,08,44,15.30
2011,07,19,08,45,15.40
2011,07,19,08,46,15.40
2011,07,19,08,47,15.50
2011,07,19,08,48,15.60
2011,07,19,08,49,15.60
2011,07,19,08,50,15.70
2011,07,19,08,51,15.70
2011,07,19,08,52,15.80
2011,07,19,08,53,15.80
2011,07,19,08,54,15.80
2011,07,19,08,55,15.90
2011,07,19,08,56,15.90
2011,07,19,08,57,16.00
2011,07,19,08,58,16.10
2011,07,19,08,59,16.10
2011,07,19,09,00,16.20
2011,07,19,09,01,16.30
2011,07,19,09,02,16.30
2011,07,19,09,03,16.40
2011,07,19,09,04,16.40
2011,07,19,09,05,16.50
2011,07,19,09,06,16.50
2011,07,19,09,07,16.50
2011,07,19,09,08,16.50
2011,07,19,09,09,16.50
2011,07,19,09,10,16.60
2011,07,19,09,11,16.60
2011,07,19,09,12,16.60
2011,07,19,09,13,16.60
2011,07,19,09,14,16.70
2011,07,19,09,15,16.80
2011,07,19,09,16,16.90
2011,07,19,09,17,17.00
2011,07,19,09,18,17.10
2011,07,19,09,19,17.20
2011,07,19,09,20,17.20
2011,07,19,09,21,17.30
2011,07,19,09,22,17.40
2011,07,19,09,23,17.50
2011,07,19,09,24,17.50
2011,07,19,09,25,17.50
2011,07,19,09,26,17.50
2011,07,19,09,27,17.50
2011,07,19,09,28,17.40
2011,07,19,09,29,17.40
2011,07,19,09,30,17.40
2011,07,19,09,31,17.40
2011,07,19,09,32,17.30
2011,07,19,09,33,17.30
2011,07,19,09,34,17.30
2011,07,19,09,35,17.30
2011,07,19,09,36,17.30
2011,07,19,09,37,17.40
2011,07,19,09,38,17.40
2011,07,19,09,39,17.50
2011,07,19,09,40,17.50
2011,07,19,09,41,17.60
2011,07,19,09,42,17.60
2011,07,19,09,43,17.60
2011,07,19,09,44,17.60
2011,07,19,09,45,17.60
2011,07,19,09,46,17.70
2011,07,19,09,47,17.80
2011,07,19,09,48,17.80
2011,07,19,09,49,17.80
2011,07,19,09,50,17.90
2011,07,19,09,51,17.90
2011,07,19,09,52,18.00
2011,07,19,09,53,18.10
2011,07,19,09,54,18.20
2011,07,19,09,55,18.20
2011,07,19,09,56,18.30
2011,07,19,09,57,18.40
2011,07,19,09,58,18.50
2011,07,19,09,59,18.50
2011,07,19,10,00,18.60
2011,07,19,10,01,18.60
2011,07,19,10,02,18.70
2011,07,19,10,03,18.70
2011,07,19,10,04,18.60
2011,07,19,10,05,18.50
2011,07,19,10,06,18.50
2011,07,19,10,07,18.50
2011,07,19,10,08,18.40
2011,07,19,10,09,18.40
2011,07,19,10,10,18.40
2011,07,19,10,11,18.40
2011,07,19,10,12,18.30
2011,07,19,10,13,18.20
2011,07,19,10,14,18.10
2011,07,19,10,15,18.10
2011,07,19,10,16,18.10
2011,07,19,10,17,18.10
2011,07,19,10,18,18.10
2011,07,19,10,19,18.20
2011,07,19,10,20,18.20
2011,07,19,10,21,18.30
2011,07,19,10,22,18.30
2011,07,19,10,23,18.40
2011,07,19,10,24,18.40
2011,07,19,10,25,18.30
2011,07,19,10,26,18.30
2011,07,19,10,27,18.40
2011,07,19,10,28,18.40
2011,07,19,10,29,18.50
2011,07,19,10,30,18.50
2011,07,19,10,31,18.60
2011,07,19,10,32,18.60
2011,07,19,10,33,18.50
2011,07,19,10,34,18.40
2011,07,19,10,35,18.40
2011,07,19,10,36,18.50
2011,07,19,10,37,18.60
2011,07,19,10,38,18.60
2011,07,19,10,39,18.60
2011,07,19,10,40,18.70
2011,07,19,10,41,18.80
2011,07,19,10,42,18.90
2011,07,19,10,43,18.90
2011,07,19,10,44,18.90
2011,07,19,10,45,18.90
2011,07,19,10,46,18.90
2011,07,19,10,47,19.00
2011,07,19,10,48,19.10
2011,07,19,10,49,19.20
2011,07,19,10,50,19.30
2011,07,19,10,51,19.30
2011,07,19,10,52,19.30
2011,07,19,10,53,19.30
2011,07,19,10,54,19.10
2011,07,19,10,55,19.10
2011,07,19,10,56,19.00
2011,07,19,10,57,19.00
2011,07,19,10,58,19.00
2011,07,19,10,59,19.10
2011,07,19,11,00,19.10
2011,07,19,11,01,19.10
2011,07,19,11,02,19.10
2011,07,19,11,03,19.10
2011,07,19,11,04,19.10
2011,07,19,11,05,19.20
2011,07,19,11,06,19.20
2011,07,19,11,07,19.20
2011,07,19,11,08,19.20
2011,07,19,11,09,19.20
2011,07,19,11,10,19.20
2011,07,19,11,11,19.20
2011,07,19,11,12,19.20
2011,07,19,11,13,19.30
2011,07,19,11,14,19.30
2011,07,19,11,15,19.30
2011,07,19,11,16,19.40
2011,07,19,11,17,19.40
2011,07,19,11,18,19.50
2011,07,19,11,19,19.50
2011,07,19,11,20,19.60
2011,07,19,11,21,19.50
2011,07,19,11,22,19.40
2011,07,19,11,23,19.30
2011,07,19,11,24,19.30
2011,07,19,11,25,19.30
2011,07,19,11,26,19.30
2011,07,19,11,27,19.30
2011,07,19,11,28,19.20
2011,07,19,11,29,19.10
2011,07,19,11,30,18.90
2011,07,19,11,31,18.80
2011,07,19,11,32,18.70
2011,07,19,11,33,18.60
2011,07,19,11,34,18.50
2011,07,19,11,35,18.40
2011,07,19,11,36,18.40
2011,07,19,11,37,18.30
2011,07,19,11,38,18.20
2011,07,19,11,39,18.20
2011,07,19,11,40,18.20
2011,07,19,11,41,18.20
2011,07,19,11,42,18.30
2011,07,19,11,43,18.30
2011,07,19,11,44,18.40
2011,07,19,11,45,18.40
2011,07,19,11,46,18.50
2011,07,19,11,47,18.60
2011,07,19,11,48,18.70
2011,07,19,11,49,18.80
2011,07,19,11,50,18.80
2011,07,19,11,51,18.80
2011,07,19,11,52,18.80
2011,07,19,11,53,18.80
2011,07,19,11,54,18.80
2011,07,19,11,55,18.80
2011,07,19,11,56,18.90
2011,07,19,11,57,18.90
2011,07,19,11,58,18.90
2011,07,19,11,59,18.90
2011,07,19,12,00,19.00
2011,07,19,12,01,19.10
2011,07,19,12,02,19.10
2011,07,19,12,03,19.10
2011,07,19,12,04,19.10
2011,07,19,12,05,18.90
2011,07,19,12,06,18.70
2011,07,19,12,07,18.60
2011,07,19,12,08,18.50
2011,07,19,12,09,18.50
2011,07,19,12,10,18.50
2011,07,19,12,11,18.50
2011,07,19,12,12,18.50
2011,07,19,12,13,18.50
2011,07,19,12,14,18.50
2011,07,19,12,15,18.50
2011,07,19,12,16,18.40
2011,07,19,12,17,18.40
2011,07,19,12,18,18.50
2011,07,19,12,19,18.60
2011,07,19,12,20,18.70
2011,07,19,12,21,18.70
2011,07,19,12,22,18.70
2011,07,19,12,23,18.70
2011,07,19,12,24,18.70
2011,07,19,12,25,18.60
2011,07,19,12,26,18.50
2011,07,19,12,27,18.40
2011,07,19,12,28,18.30
2011,07,19,12,29,18.30
2011,07,19,12,30,18.20
2011,07,19,12,31,18.00
2011,07,19,12,32,17.90
2011,07,19,12,33,17.80
2011,07,19,12,34,17.80
2011,07,19,12,35,17.70
2011,07,19,12,36,17.70
2011,07,19,12,37,17.60
2011,07,19,12,38,17.40
2011,07,19,12,39,17.30
2011,07,19,12,40,17.30
2011,07,19,12,41,17.20
2011,07,19,12,42,17.10
2011,07,19,12,43,17.00
2011,07,19,12,44,17.00
2011,07,19,12,45,16.90
2011,07,19,12,46,16.90
2011,07,19,12,47,17.00
2011,07,19,12,48,17.10
2011,07,19,12,49,17.20
2011,07,19,12,50,17.40
2011,07,19,12,51,17.40
2011,07,19,12,52,17.40
2011,07,19,12,53,17.40
2011,07,19,12,54,17.40
2011,07,19,12,55,17.40
2011,07,19,12,56,17.40
2011,07,19,12,57,17.50
2011,07,19,12,58,17.60
2011,07,19,12,59,17.70
2011,07,19,13,00,17.80
2011,07,19,13,01,17.80
2011,07,19,13,02,17.80
2011,07,19,13,03,17.70
2011,07,19,13,04,17.70
2011,07,19,13,05,17.70
2011,07,19,13,06,17.60
2011,07,19,13,07,17.50
2011,07,19,13,08,17.40
2011,07,19,13,09,17.40
2011,07,19,13,10,17.40
2011,07,19,13,11,17.40
2011,07,19,13,12,17.20
2011,07,19,13,13,17.20
2011,07,19,13,14,17.10
2011,07,19,13,15,17.00
2011,07,19,13,16,17.00
2011,07,19,13,17,17.00
2011,07,19,13,18,17.00
2011,07,19,13,19,17.10
2011,07,19,13,20,17.10
2011,07,19,13,21,17.10
2011,07,19,13,22,17.20
2011,07,19,13,23,17.20
2011,07,19,13,24,17.30
2011,07,19,13,25,17.30
2011,07,19,13,26,17.20
2011,07,19,13,27,17.20
2011,07,19,13,28,17.10
2011,07,19,13,29,17.10
2011,07,19,13,30,17.10
2011,07,19,13,31,17.00
2011,07,19,13,32,16.90
2011,07,19,13,33,16.90
2011,07,19,13,34,16.80
2011,07,19,13,35,16.80
2011,07,19,13,36,16.70
2011,07,19,13,37,16.70
2011,07,19,13,38,16.70
2011,07,19,13,39,16.60
2011,07,19,13,40,16.60
2011,07,19,13,41,16.70
2011,07,19,13,42,16.70
2011,07,19,13,43,16.80
2011,07,19,13,44,16.90
2011,07,19,13,45,16.90
2011,07,19,13,46,17.00
2011,07,19,13,47,17.10
2011,07,19,13,48,17.20
2011,07,19,13,49,17.30
2011,07,19,13,50,17.30
2011,07,19,13,51,17.30
2011,07,19,13,52,17.30
2011,07,19,13,53,17.40
2011,07,19,13,54,17.40
2011,07,19,13,55,17.40
2011,07,19,13,56,17.40
2011,07,19,13,57,17.40
2011,07,19,13,58,17.40
2011,07,19,13,59,17.30
2011,07,19,14,00,17.30
2011,07,19,14,01,17.30
2011,07,19,14,02,17.30
2011,07,19,14,03,17.40
2011,07,19,14,04,17.50
2011,07,19,14,05,17.60
2011,07,19,14,06,17.70
2011,07,19,14,07,17.80
2011,07,19,14,08,17.80
2011,07,19,14,09,17.80
2011,07,19,14,10,17.80
2011,07,19,14,11,17.90
2011,07,19,14,12,17.80
2011,07,19,14,13,17.90
2011,07,19,14,14,17.90
2011,07,19,14,15,17.90
2011,07,19,14,16,17.90
2011,07,19,14,17,17.80
2011,07,19,14,18,17.80
2011,07,19,14,19,17.70
2011,07,19,14,20,17.60
2011,07,19,14,21,17.50
2011,07,19,14,22,17.40
2011,07,19,14,23,17.30
2011,07,19,14,24,17.20
2011,07,19,14,25,17.20
2011,07,19,14,26,17.20
2011,07,19,14,27,17.30
2011,07,19,14,28,17.40
2011,07,19,14,29,17.50
2011,07,19,14,30,17.60
2011,07,19,14,31,17.70
2011,07,19,14,32,17.80
2011,07,19,14,33,17.90
2011,07,19,14,34,18.00
2011,07,19,14,35,17.90
2011,07,19,14,36,17.90
2011,07,19,14,37,17.80
2011,07,19,14,38,17.80
2011,07,19,14,39,17.80
2011,07,19,14,40,17.80
2011,07,19,14,41,17.70
2011,07,19,14,42,17.70
2011,07,19,14,43,17.60
2011,07,19,14,44,17.60
2011,07,19,14,45,17.50
2011,07,19,14,46,17.50
2011,07,19,14,47,17.60
2011,07,19,14,48,17.70
2011,07,19,14,49,17.80
2011,07,19,14,50,17.90
2011,07,19,14,51,17.90
2011,07,19,14,52,17.80
2011,07,19,14,53,17.90
2011,07,19,14,54,18.00
2011,07,19,14,55,18.10
2011,07,19,14,56,18.10
2011,07,19,14,57,18.20
2011,07,19,14,58,18.30
2011,07,19,14,59,18.30
2011,07,19,15,00,18.40
2011,07,19,15,01,18.40
2011,07,19,15,02,18.30
2011,07,19,15,03,18.30
2011,07,19,15,04,18.20
2011,07,19,15,05,18.20
2011,07,19,15,06,18.10
2011,07,19,15,07,17.90
2011,07,19,15,08,17.70
2011,07,19,15,09,17.60
2011,07,19,15,10,17.40
2011,07,19,15,11,17.30
2011,07,19,15,12,17.10
2011,07,19,15,13,16.90
2011,07,19,15,14,16.80
2011,07,19,15,15,16.80
2011,07,19,15,16,16.70
2011,07,19,15,17,16.70
2011,07,19,15,18,16.70
2011,07,19,15,19,16.70
2011,07,19,15,20,16.60
2011,07,19,15,21,16.60
2011,07,19,15,22,16.50
2011,07,19,15,23,16.50
2011,07,19,15,24,16.50
2011,07,19,15,25,16.40
2011,07,19,15,26,16.30
2011,07,19,15,27,16.30
2011,07,19,15,28,16.20
2011,07,19,15,29,16.20
2011,07,19,15,30,16.10
2011,07,19,15,31,16.10
2011,07,19,15,32,16.10
2011,07,19,15,33,16.10
2011,07,19,15,34,16.10
2011,07,19,15,35,16.10
2011,07,19,15,36,16.20
2011,07,19,15,37,16.20
2011,07,19,15,38,16.20
2011,07,19,15,39,16.20
2011,07,19,15,40,16.20
2011,07,19,15,41,16.20
2011,07,19,15,42,16.20
2011,07,19,15,43,16.30
2011,07,19,15,44,16.30
2011,07,19,15,45,16.30
2011,07,19,15,46,16.30
2011,07,19,15,47,16.40
2011,07,19,15,48,16.40
2011,07,19,15,49,16.50
2011,07,19,15,50,16.50
2011,07,19,15,51,16.40
2011,07,19,15,52,16.40
2011,07,19,15,53,16.30
2011,07,19,15,54,16.30
2011,07,19,15,55,16.30
2011,07,19,15,56,16.30
2011,07,19,15,57,16.20
2011,07,19,15,58,16.20
2011,07,19,15,59,16.20
2011,07,19,16,00,16.10
2011,07,19,16,01,16.10
2011,07,19,16,02,16.10
2011,07,19,16,03,16.00
2011,07,19,16,04,16.00
2011,07,19,16,05,15.90
2011,07,19,16,06,15.90
2011,07,19,16,07,15.80
2011,07,19,16,08,15.80
2011,07,19,16,09,15.80
2011,07,19,16,10,15.70
2011,07,19,16,11,15.70
2011,07,19,16,12,15.70
2011,07,19,16,13,15.70
2011,07,19,16,14,15.70
2011,07,19,16,15,15.70
2011,07,19,16,16,15.70
2011,07,19,16,17,15.70
2011,07,19,16,18,15.80
2011,07,19,16,19,15.80
2011,07,19,16,20,15.80
2011,07,19,16,21,15.80
2011,07,19,16,22,15.80
2011,07,19,16,23,15.90
2011,07,19,16,24,15.90
2011,07,19,16,25,15.90
2011,07,19,16,26,16.00
2011,07,19,16,27,16.00
2011,07,19,16,28,16.00
2011,07,19,16,29,16.00
2011,07,19,16,30,16.00
2011,07,19,16,31,16.00
2011,07,19,16,32,16.00
2011,07,19,16,33,16.10
2011,07,19,16,34,16.10
2011,07,19,16,35,16.10
2011,07,19,16,36,16.20
2011,07,19,16,37,16.20
2011,07,19,16,38,16.20
2011,07,19,16,39,16.20
2011,07,19,16,40,16.20
2011,07,19,16,41,16.10
2011,07,19,16,42,16.10
2011,07,19,16,43,16.10
2011,07,19,16,44,16.10
2011,07,19,16,45,16.00
2011,07,19,16,46,15.90
2011,07,19,16,47,15.90
2011,07,19,16,48,15.90
2011,07,19,16,49,15.80
2011,07,19,16,50,15.80
2011,07,19,16,51,15.80
2011,07,19,16,52,15.80
2011,07,19,16,53,15.70
2011,07,19,16,54,15.70
2011,07,19,16,55,15.60
2011,07,19,16,56,15.60
2011,07,19,16,57,15.60
2011,07,19,16,58,15.70
2011,07,19,16,59,15.70
2011,07,19,17,00,15.70
2011,07,19,17,01,15.70
2011,07,19,17,02,15.70
2011,07,19,17,03,15.70
2011,07,19,17,04,15.70
2011,07,19,17,05,15.70
2011,07,19,17,06,15.60
2011,07,19,17,07,15.60
2011,07,19,17,08,15.60
2011,07,19,17,09,15.50
2011,07,19,17,10,15.50
2011,07,19,17,11,15.50
2011,07,19,17,12,15.60
2011,07,19,17,13,15.60
2011,07,19,17,14,15.70
2011,07,19,17,15,15.70
2011,07,19,17,16,15.80
2011,07,19,17,17,15.90
2011,07,19,17,18,16.00
2011,07,19,17,19,16.00
2011,07,19,17,20,16.10
2011,07,19,17,21,16.20
2011,07,19,17,22,16.20
2011,07,19,17,23,16.20
2011,07,19,17,24,16.20
2011,07,19,17,25,16.20